Printer-friendly version
Follow the MPC on Twitter Follow the MPC on Facebook The MPC blog
Minor Planet Center

MPEC 2002-C60 : COMET C/2002 C1 (IKEYA-ZHANG)

The following Minor Planet Electronic Circular may be linked-to from your own Web pages, but must not otherwise be redistributed electronically.

A form allowing access to any MPEC is at the bottom of this page.


Read MPEC 2002-C59 Read MPEC 2002-C61


M.P.E.C. 2002-C60                                Issued 2002 Feb.  9, 20:22 UT

     The Minor Planet Electronic Circulars contain information on unusual
         minor planets and routine data on comets.  They are published
   on behalf of Commission 20 of the International Astronomical Union by the
          Minor Planet Center, Smithsonian Astrophysical Observatory,
                          Cambridge, MA 02138, U.S.A.

             Prepared using the Tamkin Foundation Computer Network

                              MPC@CFA.HARVARD.EDU
          URL http://cfa-www.harvard.edu/iau/mpc.html  ISSN 1523-6714

                         COMET C/2002 C1 (IKEYA-ZHANG)

Observations:
    CK02C010  C2002 02 03.03951 00 11 38.80 -16 50 41.6          12.3 T      452
    CK02C010  C2002 02 03.04405 00 11 39.43 -16 50 33.6          12.6 T      452
    CK02C010  C2002 02 03.04946 00 11 39.81 -16 50 23.9          12.2 T      452
    CK02C010  C2002 02 03.40818 00 12 15.65 -16 39 34.6          14.6 N      428
    CK02C010  C2002 02 03.40913 00 12 15.75 -16 39 32.8          14.6 N      428
    CK02C010  C2002 02 03.41009 00 12 15.81 -16 39 31.1          14.7 N      428
    CK02C010  C2002 02 03.41105 00 12 15.93 -16 39 29.3          14.7 N      428
    CK02C010  C2002 02 03.73799 00 12 49.25 -16 29 38.7          12.1 N      235
    CK02C010  C2002 02 04.37574 00 13 53.55 -16 10 19.7                      896
    CK02C010  C2002 02 04.38657 00 13 54.65 -16 10 00.9           9.7 T      349
    CK02C010  C2002 02 04.38764 00 13 54.79 -16 09 58.9                      349
    CK02C010  C2002 02 04.38852 00 13 54.88 -16 09 57.1                      349
    CK02C010  C2002 02 04.38940 00 13 54.94 -16 09 56.1                      349
    CK02C010  C2002 02 04.39012 00 13 55.04 -16 09 54.4                      349
    CK02C010  C2002 02 04.40176 00 13 56.19 -16 09 33.3                      342
    CK02C010  C2002 02 04.41007 00 13 57.09 -16 09 17.4                      342
    CK02C010  C2002 02 04.42049 00 13 58.13 -16 08 58.9                      342
    CK02C010  C2002 02 04.71830 00 14 28.70 -15 59 51.3           9.0 T      118
    CK02C010  C2002 02 04.72003 00 14 28.85 -15 59 47.4           9.3 T      118
    CK02C010  C2002 02 04.72164 00 14 29.01 -15 59 45.0           9.4 T      118
    CK02C010  C2002 02 05.03297 00 15 00.78 -15 50 07.2          11.8 N      452
    CK02C010  C2002 02 05.03593 00 15 01.05 -15 50 01.4          11.8 N      452
    CK02C010  C2002 02 05.03741 00 15 01.23 -15 49 58.6          11.8 N      452
    CK02C010  C2002 02 05.03889 00 15 01.38 -15 49 54.8          11.8 N      452
    CK02C010  C2002 02 05.40331 00 15 38.91 -15 38 32.4          13.9 N      428
    CK02C010  C2002 02 05.40425 00 15 39.00 -15 38 30.6          13.8 N      428
    CK02C010  C2002 02 05.40521 00 15 39.09 -15 38 28.4          13.9 N      428
    CK02C010  C2002 02 06.39367 00 17 22.08 -15 07 32.2          10.0 T      300
    CK02C010  C2002 02 06.39544 00 17 22.18 -15 07 28.9           9.3 T      349
    CK02C010  C2002 02 06.39574 00 17 22.26 -15 07 28.3                      300
    CK02C010  C2002 02 06.39635 00 17 22.27 -15 07 27.5                      349
    CK02C010  C2002 02 06.39670 00 17 22.40 -15 07 26.6                      300
    CK02C010  C2002 02 06.39714 00 17 22.34 -15 07 25.6                      349
    CK02C010  C2002 02 06.39769 00 17 22.48 -15 07 24.9                      300
    CK02C010  C2002 02 06.39792 00 17 22.42 -15 07 24.3                      349
    CK02C010  C2002 02 06.39816 00 17 22.53 -15 07 23.8                      300
    CK02C010  C2002 02 06.39872 00 17 22.49 -15 07 22.8                      349
    CK02C010  C2002 02 06.40767 00 17 23.41 -15 07 05.4          11.4 T      340
    CK02C010  C2002 02 06.40830 00 17 23.44 -15 07 04.2                      347
    CK02C010  C2002 02 06.40896 00 17 23.55 -15 07 03.3                      340
    CK02C010  C2002 02 06.41013 00 17 23.65 -15 07 01.5                      340
    CK02C010  C2002 02 06.41198 00 17 23.87 -15 06 57.8                      340
    CK02C010  C2002 02 06.41421 00 17 24.10 -15 06 53.1                      347
    CK02C010  C2002 02 06.41422 00 17 24.08 -15 06 53.4                      340
    CK02C010  C2002 02 06.41545 00 17 24.24 -15 06 51.1                      340
    CK02C010  C2002 02 06.41575 00 17 24.22 -15 06 50.7                      347
    CK02C010  C2002 02 06.41700 00 17 24.38 -15 06 48.2                      347
    CK02C010  C2002 02 06.41769 00 17 24.42 -15 06 46.4                      340
    CK02C010  C2002 02 06.41833 00 17 24.52 -15 06 45.2                      347
    CK02C010  C2002 02 06.41909 00 17 24.62 -15 06 44.2                      340
    CK02C010  C2002 02 06.42074 00 17 24.80 -15 06 40.5                      340
    CK02C010  C2002 02 06.43860 00 17 26.63 -15 06 07.0          10.3 T      367
    CK02C010  C2002 02 06.43964 00 17 26.78 -15 06 05.9                      367
    CK02C010  C2002 02 06.44068 00 17 26.83 -15 06 03.4                      367
    CK02C010  C2002 02 06.44172 00 17 27.02 -15 06 01.1                      367
    CK02C010  C2002 02 07.73957 00 19 44.40 -14 24 21.7                      201
    CK02C010  C2002 02 07.74728 00 19 45.21 -14 24 06.6                      201
    CK02C010  C2002 02 07.74907 00 19 45.35 -14 24 04.1          11.4 N      235
    CK02C010  C2002 02 07.75692 00 19 46.15 -14 23 48.0                      201
    CK02C010  C2002 02 07.76609 00 19 47.12 -14 23 30.0                      201
    CK02C010  C2002 02 07.78935 00 19 49.55 -14 22 43.4          11.2 N      213
    CK02C010  C2002 02 07.79258 00 19 50.10 -14 22 37.2          11.3 N      213
    CK02C010  C2002 02 07.79582 00 19 50.28 -14 22 31.6          11.3 N      213
    CK02C010  C2002 02 07.79905 00 19 50.65 -14 22 24.4          11.2 N      213
    CK02C010  C2002 02 08.77292 00 21 35.29 -13 50 28.0                      941
    CK02C010  C2002 02 08.77826 00 21 35.86 -13 50 17.0                      941

Observer details:
118 Modra.  Observers L. Kornos, J. Toth.  0.6-m f/5.5 reflector + CCD.
201 Jonathan B. Postel Observatory.  Observer V. Pozzoli.  0.30-m f/10
    reflector + CCD.
213 Observatorio Montcabre.  Observer R. Naves N.  Measurer M. Campas.
    0.25-m f/3.3 Schmidt-Cassegrain + CCD.
235 CAST Observatory, Talmassons.  Observer R. Ligustri.  0.35-m f/3.5
    reflector + CCD.
300 Bisei Spaceguard Center--BATTeRS.  Observers A. Asami, D. J. Asher,
    T. Fuse, N. Hashimoto, A. I. Ibrahim, S. Isobe, K. Nishiyama, Y. Oshima,
    J. Terazono, H. Umehara, T. Urata, M. Yoshikawa.  0.25-m f/5.0 reflector
    + CCD.
340 Toyonaka.  Observer Y. Ezaki.  0.3-m f/6.0 reflector + CCD.
342 Shishikui.  Observer H. Maeno.  0.15-m f/5.0 reflector + CCD.
347 Utsunomiya-Imaizumi.  Observer M. Suzuki.  0.25-m f/6.3 Schmidt-Cassegrain
    + CCD.
349 Ageo.  Observer K. Kadota.  0.18-m f/5.5 reflector + CCD.
367 Yatsuka.  Observer H. Abe.  0.26-m f/6.0 reflector + CCD.
428 Reedy Creek.  Observer J. Broughton.  0.25-m f/6.3 Schmidt-Cassegrain
    + CCD.
452 Big Cypress Observatory.  Observer L. Nemec.  0.25-m Schmidt-Cassegrain
    + CCD.
896 Yatsugatake South Base Observatory.  Observer M. Aoki.  Measurer
    Y. Kushida.  0.25-m f/6.3 Schmidt-Cassegrain + CCD.
941 Observatorio Pla D'Arguines.  Observer R. Ferrando.  0.26-m f/10
    Schmidt-Cassegrain + CCD.

Orbital elements:
    C/2002 C1 (Ikeya-Zhang)
T 2002 Mar. 18.9118 TT                                  MPC
q   0.510190             (2000.0)            P               Q
                   Peri.   34.2075      -0.5412566      -0.6968687
                   Node    93.2016      +0.6267809      -0.7074064
e   1.0            Incl.   28.1176      +0.5605239      +0.1181110
From 126 observations 2002 Feb. 1-8.

